Year,Month,Day,Hour,Minute,Value (Times are PST for temperature in C)
2015,07,18,00,00,19.10
2015,07,18,00,01,19.10
2015,07,18,00,02,19.10
2015,07,18,00,03,19.10
2015,07,18,00,04,19.00
2015,07,18,00,05,19.00
2015,07,18,00,06,19.00
2015,07,18,00,07,19.00
2015,07,18,00,08,19.00
2015,07,18,00,09,18.90
2015,07,18,00,10,18.90
2015,07,18,00,11,18.90
2015,07,18,00,12,18.90
2015,07,18,00,13,18.90
2015,07,18,00,14,18.80
2015,07,18,00,15,18.80
2015,07,18,00,16,18.80
2015,07,18,00,17,18.80
2015,07,18,00,18,18.80
2015,07,18,00,19,18.80
2015,07,18,00,20,18.70
2015,07,18,00,21,18.70
2015,07,18,00,22,18.70
2015,07,18,00,23,18.60
2015,07,18,00,24,18.60
2015,07,18,00,25,18.60
2015,07,18,00,26,18.60
2015,07,18,00,27,18.60
2015,07,18,00,28,18.60
2015,07,18,00,29,18.60
2015,07,18,00,30,18.60
2015,07,18,00,31,18.60
2015,07,18,00,32,18.50
2015,07,18,00,33,18.50
2015,07,18,00,34,18.50
2015,07,18,00,35,18.50
2015,07,18,00,36,18.50
2015,07,18,00,37,18.50
2015,07,18,00,38,18.40
2015,07,18,00,39,18.40
2015,07,18,00,40,18.40
2015,07,18,00,41,18.40
2015,07,18,00,42,18.40
2015,07,18,00,43,18.40
2015,07,18,00,44,18.40
2015,07,18,00,45,18.40
2015,07,18,00,46,18.40
2015,07,18,00,47,18.40
2015,07,18,00,48,18.40
2015,07,18,00,49,18.40
2015,07,18,00,50,18.40
2015,07,18,00,51,18.40
2015,07,18,00,52,18.40
2015,07,18,00,53,18.40
2015,07,18,00,54,18.30
2015,07,18,00,55,18.30
2015,07,18,00,56,18.30
2015,07,18,00,57,18.30
2015,07,18,00,58,18.30
2015,07,18,00,59,18.30
2015,07,18,01,00,18.30
2015,07,18,01,01,18.30
2015,07,18,01,02,18.20
2015,07,18,01,03,18.20
2015,07,18,01,04,18.20
2015,07,18,01,05,18.20
2015,07,18,01,06,18.20
2015,07,18,01,07,18.10
2015,07,18,01,08,18.10
2015,07,18,01,09,18.10
2015,07,18,01,10,18.10
2015,07,18,01,11,18.10
2015,07,18,01,12,18.10
2015,07,18,01,13,18.10
2015,07,18,01,14,18.10
2015,07,18,01,15,18.10
2015,07,18,01,16,18.10
2015,07,18,01,17,18.10
2015,07,18,01,18,18.10
2015,07,18,01,19,18.10
2015,07,18,01,20,18.10
2015,07,18,01,21,18.10
2015,07,18,01,22,18.10
2015,07,18,01,23,18.10
2015,07,18,01,24,18.10
2015,07,18,01,25,18.10
2015,07,18,01,26,18.10
2015,07,18,01,27,18.10
2015,07,18,01,28,18.10
2015,07,18,01,29,18.10
2015,07,18,01,30,18.10
2015,07,18,01,31,18.10
2015,07,18,01,32,18.10
2015,07,18,01,33,18.10
2015,07,18,01,34,18.10
2015,07,18,01,35,18.10
2015,07,18,01,36,18.10
2015,07,18,01,37,18.10
2015,07,18,01,38,18.10
2015,07,18,01,39,18.10
2015,07,18,01,40,18.10
2015,07,18,01,41,18.10
2015,07,18,01,42,18.10
2015,07,18,01,43,18.10
2015,07,18,01,44,18.00
2015,07,18,01,45,18.00
2015,07,18,01,46,18.00
2015,07,18,01,47,18.00
2015,07,18,01,48,18.00
2015,07,18,01,49,18.00
2015,07,18,01,50,18.00
2015,07,18,01,51,18.00
2015,07,18,01,52,18.00
2015,07,18,01,53,18.00
2015,07,18,01,54,18.00
2015,07,18,01,55,18.00
2015,07,18,01,56,18.10
2015,07,18,01,57,18.10
2015,07,18,01,58,18.00
2015,07,18,01,59,18.10
2015,07,18,02,00,18.10
2015,07,18,02,01,18.10
2015,07,18,02,02,18.10
2015,07,18,02,03,18.10
2015,07,18,02,04,18.10
2015,07,18,02,05,18.10
2015,07,18,02,06,18.10
2015,07,18,02,07,18.00
2015,07,18,02,08,18.00
2015,07,18,02,09,18.00
2015,07,18,02,10,18.00
2015,07,18,02,11,18.00
2015,07,18,02,12,18.00
2015,07,18,02,13,18.00
2015,07,18,02,14,18.00
2015,07,18,02,15,18.00
2015,07,18,02,16,18.00
2015,07,18,02,17,18.00
2015,07,18,02,18,18.00
2015,07,18,02,19,18.00
2015,07,18,02,20,17.90
2015,07,18,02,21,17.90
2015,07,18,02,22,17.90
2015,07,18,02,23,17.90
2015,07,18,02,24,17.90
2015,07,18,02,25,17.90
2015,07,18,02,26,17.90
2015,07,18,02,27,17.90
2015,07,18,02,28,17.90
2015,07,18,02,29,17.90
2015,07,18,02,30,17.90
2015,07,18,02,31,17.90
2015,07,18,02,32,17.90
2015,07,18,02,33,17.90
2015,07,18,02,34,17.90
2015,07,18,02,35,17.90
2015,07,18,02,36,17.80
2015,07,18,02,37,17.80
2015,07,18,02,38,17.80
2015,07,18,02,39,17.80
2015,07,18,02,40,17.80
2015,07,18,02,41,17.80
2015,07,18,02,42,17.80
2015,07,18,02,43,17.80
2015,07,18,02,44,17.80
2015,07,18,02,45,17.80
2015,07,18,02,46,17.80
2015,07,18,02,47,17.80
2015,07,18,02,48,17.80
2015,07,18,02,49,17.70
2015,07,18,02,50,17.70
2015,07,18,02,51,17.70
2015,07,18,02,52,17.70
2015,07,18,02,53,17.70
2015,07,18,02,54,17.70
2015,07,18,02,55,17.70
2015,07,18,02,56,17.70
2015,07,18,02,57,17.70
2015,07,18,02,58,17.70
2015,07,18,02,59,17.70
2015,07,18,03,00,17.70
2015,07,18,03,01,17.70
2015,07,18,03,02,17.70
2015,07,18,03,03,17.70
2015,07,18,03,04,17.70
2015,07,18,03,05,17.70
2015,07,18,03,06,17.70
2015,07,18,03,07,17.70
2015,07,18,03,08,17.70
2015,07,18,03,09,17.70
2015,07,18,03,10,17.70
2015,07,18,03,11,17.70
2015,07,18,03,12,17.70
2015,07,18,03,13,17.70
2015,07,18,03,14,17.70
2015,07,18,03,15,17.70
2015,07,18,03,16,17.60
2015,07,18,03,17,17.60
2015,07,18,03,18,17.60
2015,07,18,03,19,17.60
2015,07,18,03,20,17.60
2015,07,18,03,21,17.60
2015,07,18,03,22,17.60
2015,07,18,03,23,17.60
2015,07,18,03,24,17.60
2015,07,18,03,25,17.60
2015,07,18,03,26,17.60
2015,07,18,03,27,17.60
2015,07,18,03,28,17.60
2015,07,18,03,29,17.60
2015,07,18,03,30,17.60
2015,07,18,03,31,17.60
2015,07,18,03,32,17.60
2015,07,18,03,33,17.60
2015,07,18,03,34,17.60
2015,07,18,03,35,17.60
2015,07,18,03,36,17.60
2015,07,18,03,37,17.60
2015,07,18,03,38,17.50
2015,07,18,03,39,17.50
2015,07,18,03,40,17.50
2015,07,18,03,41,17.50
2015,07,18,03,42,17.50
2015,07,18,03,43,17.50
2015,07,18,03,44,17.50
2015,07,18,03,45,17.50
2015,07,18,03,46,17.50
2015,07,18,03,47,17.50
2015,07,18,03,48,17.50
2015,07,18,03,49,17.40
2015,07,18,03,50,17.40
2015,07,18,03,51,17.40
2015,07,18,03,52,17.40
2015,07,18,03,53,17.40
2015,07,18,03,54,17.40
2015,07,18,03,55,17.40
2015,07,18,03,56,17.40
2015,07,18,03,57,17.40
2015,07,18,03,58,17.30
2015,07,18,03,59,17.30
2015,07,18,04,00,17.30
2015,07,18,04,01,17.30
2015,07,18,04,02,17.30
2015,07,18,04,03,17.30
2015,07,18,04,04,17.30
2015,07,18,04,05,17.30
2015,07,18,04,06,17.30
2015,07,18,04,07,17.30
2015,07,18,04,08,17.30
2015,07,18,04,09,17.30
2015,07,18,04,10,17.30
2015,07,18,04,11,17.30
2015,07,18,04,12,17.30
2015,07,18,04,13,17.30
2015,07,18,04,14,17.30
2015,07,18,04,15,17.30
2015,07,18,04,16,17.30
2015,07,18,04,17,17.30
2015,07,18,04,18,17.30
2015,07,18,04,19,17.30
2015,07,18,04,20,17.30
2015,07,18,04,21,17.30
2015,07,18,04,22,17.30
2015,07,18,04,23,17.30
2015,07,18,04,24,17.30
2015,07,18,04,25,17.30
2015,07,18,04,26,17.30
2015,07,18,04,27,17.20
2015,07,18,04,28,17.20
2015,07,18,04,29,17.20
2015,07,18,04,30,17.20
2015,07,18,04,31,17.20
2015,07,18,04,32,17.20
2015,07,18,04,33,17.20
2015,07,18,04,34,17.20
2015,07,18,04,35,17.20
2015,07,18,04,36,17.20
2015,07,18,04,37,17.20
2015,07,18,04,38,17.20
2015,07,18,04,39,17.10
2015,07,18,04,40,17.10
2015,07,18,04,41,17.10
2015,07,18,04,42,17.10
2015,07,18,04,43,17.10
2015,07,18,04,44,17.10
2015,07,18,04,45,17.10
2015,07,18,04,46,17.10
2015,07,18,04,47,17.00
2015,07,18,04,48,17.00
2015,07,18,04,49,17.00
2015,07,18,04,50,17.10
2015,07,18,04,51,17.10
2015,07,18,04,52,17.10
2015,07,18,04,53,17.10
2015,07,18,04,54,17.10
2015,07,18,04,55,17.10
2015,07,18,04,56,17.10
2015,07,18,04,57,17.10
2015,07,18,04,58,17.10
2015,07,18,04,59,17.10
2015,07,18,05,00,17.10
2015,07,18,05,01,17.10
2015,07,18,05,02,17.10
2015,07,18,05,03,17.10
2015,07,18,05,04,17.10
2015,07,18,05,05,17.10
2015,07,18,05,06,17.10
2015,07,18,05,07,17.10
2015,07,18,05,08,17.10
2015,07,18,05,09,17.10
2015,07,18,05,10,17.10
2015,07,18,05,11,17.10
2015,07,18,05,12,17.10
2015,07,18,05,13,17.10
2015,07,18,05,14,17.10
2015,07,18,05,15,17.10
2015,07,18,05,16,17.10
2015,07,18,05,17,17.10
2015,07,18,05,18,17.10
2015,07,18,05,19,17.10
2015,07,18,05,20,17.10
2015,07,18,05,21,17.10
2015,07,18,05,22,17.10
2015,07,18,05,23,17.10
2015,07,18,05,24,17.00
2015,07,18,05,25,17.00
2015,07,18,05,26,17.00
2015,07,18,05,27,17.00
2015,07,18,05,28,17.00
2015,07,18,05,29,17.00
2015,07,18,05,30,17.00
2015,07,18,05,31,17.00
2015,07,18,05,32,17.00
2015,07,18,05,33,17.00
2015,07,18,05,34,16.90
2015,07,18,05,35,16.90
2015,07,18,05,36,16.90
2015,07,18,05,37,16.90
2015,07,18,05,38,16.90
2015,07,18,05,39,16.90
2015,07,18,05,40,16.90
2015,07,18,05,41,16.90
2015,07,18,05,42,16.90
2015,07,18,05,43,16.90
2015,07,18,05,44,16.90
2015,07,18,05,45,16.90
2015,07,18,05,46,16.80
2015,07,18,05,47,16.80
2015,07,18,05,48,16.80
2015,07,18,05,49,16.80
2015,07,18,05,50,16.80
2015,07,18,05,51,16.80
2015,07,18,05,52,16.80
2015,07,18,05,53,16.80
2015,07,18,05,54,16.80
2015,07,18,05,55,16.80
2015,07,18,05,56,16.70
2015,07,18,05,57,16.70
2015,07,18,05,58,16.70
2015,07,18,05,59,16.70
2015,07,18,06,00,16.70
2015,07,18,06,01,16.70
2015,07,18,06,02,16.70
2015,07,18,06,03,16.70
2015,07,18,06,04,16.70
2015,07,18,06,05,16.70
2015,07,18,06,06,16.70
2015,07,18,06,07,16.70
2015,07,18,06,08,16.70
2015,07,18,06,09,16.70
2015,07,18,06,10,16.70
2015,07,18,06,11,16.70
2015,07,18,06,12,16.70
2015,07,18,06,13,16.70
2015,07,18,06,14,16.70
2015,07,18,06,15,16.70
2015,07,18,06,16,16.70
2015,07,18,06,17,16.70
2015,07,18,06,18,16.70
2015,07,18,06,19,16.70
2015,07,18,06,20,16.80
2015,07,18,06,21,16.80
2015,07,18,06,22,16.80
2015,07,18,06,23,16.80
2015,07,18,06,24,16.80
2015,07,18,06,25,16.80
2015,07,18,06,26,16.80
2015,07,18,06,27,16.80
2015,07,18,06,28,16.80
2015,07,18,06,29,16.90
2015,07,18,06,30,16.90
2015,07,18,06,31,16.90
2015,07,18,06,32,16.90
2015,07,18,06,33,16.90
2015,07,18,06,34,16.90
2015,07,18,06,35,16.90
2015,07,18,06,36,17.00
2015,07,18,06,37,17.00
2015,07,18,06,38,17.00
2015,07,18,06,39,17.10
2015,07,18,06,40,17.10
2015,07,18,06,41,17.10
2015,07,18,06,42,17.10
2015,07,18,06,43,17.10
2015,07,18,06,44,17.20
2015,07,18,06,45,17.20
2015,07,18,06,46,17.20
2015,07,18,06,47,17.20
2015,07,18,06,48,17.30
2015,07,18,06,49,17.30
2015,07,18,06,50,17.30
2015,07,18,06,51,17.30
2015,07,18,06,52,17.30
2015,07,18,06,53,17.30
2015,07,18,06,54,17.40
2015,07,18,06,55,17.40
2015,07,18,06,56,17.40
2015,07,18,06,57,17.40
2015,07,18,06,58,17.40
2015,07,18,06,59,17.50
2015,07,18,07,00,17.50
2015,07,18,07,01,17.60
2015,07,18,07,02,17.60
2015,07,18,07,03,17.60
2015,07,18,07,04,17.60
2015,07,18,07,05,17.70
2015,07,18,07,06,17.70
2015,07,18,07,07,17.70
2015,07,18,07,08,17.80
2015,07,18,07,09,17.80
2015,07,18,07,10,17.80
2015,07,18,07,11,17.80
2015,07,18,07,12,17.90
2015,07,18,07,13,17.90
2015,07,18,07,14,17.90
2015,07,18,07,15,17.90
2015,07,18,07,16,17.90
2015,07,18,07,17,17.90
2015,07,18,07,18,18.00
2015,07,18,07,19,18.00
2015,07,18,07,20,18.00
2015,07,18,07,21,18.10
2015,07,18,07,22,18.10
2015,07,18,07,23,18.10
2015,07,18,07,24,18.10
2015,07,18,07,25,18.20
2015,07,18,07,26,18.20
2015,07,18,07,27,18.20
2015,07,18,07,28,18.20
2015,07,18,07,29,18.20
2015,07,18,07,30,18.30
2015,07,18,07,31,18.30
2015,07,18,07,32,18.30
2015,07,18,07,33,18.30
2015,07,18,07,34,18.40
2015,07,18,07,35,18.40
2015,07,18,07,36,18.40
2015,07,18,07,37,18.40
2015,07,18,07,38,18.50
2015,07,18,07,39,18.50
2015,07,18,07,40,18.60
2015,07,18,07,41,18.60
2015,07,18,07,42,18.70
2015,07,18,07,43,18.70
2015,07,18,07,44,18.80
2015,07,18,07,45,18.80
2015,07,18,07,46,18.90
2015,07,18,07,47,18.90
2015,07,18,07,48,19.00
2015,07,18,07,49,19.00
2015,07,18,07,50,19.10
2015,07,18,07,51,19.10
2015,07,18,07,52,19.20
2015,07,18,07,53,19.20
2015,07,18,07,54,19.20
2015,07,18,07,55,19.20
2015,07,18,07,56,19.20
2015,07,18,07,57,19.20
2015,07,18,07,58,19.30
2015,07,18,07,59,19.30
2015,07,18,08,00,19.30
2015,07,18,08,01,19.30
2015,07,18,08,02,19.30
2015,07,18,08,03,19.40
2015,07,18,08,04,19.40
2015,07,18,08,05,19.40
2015,07,18,08,06,19.40
2015,07,18,08,07,19.40
2015,07,18,08,08,19.40
2015,07,18,08,09,19.50
2015,07,18,08,10,19.50
2015,07,18,08,11,19.50
2015,07,18,08,12,19.50
2015,07,18,08,13,19.50
2015,07,18,08,14,19.50
2015,07,18,08,15,19.50
2015,07,18,08,16,19.50
2015,07,18,08,17,19.50
2015,07,18,08,18,19.40
2015,07,18,08,19,19.40
2015,07,18,08,20,19.40
2015,07,18,08,21,19.40
2015,07,18,08,22,19.40
2015,07,18,08,23,19.40
2015,07,18,08,24,19.40
2015,07,18,08,25,19.50
2015,07,18,08,26,19.60
2015,07,18,08,27,19.60
2015,07,18,08,28,19.60
2015,07,18,08,29,19.70
2015,07,18,08,30,19.70
2015,07,18,08,31,19.70
2015,07,18,08,32,19.80
2015,07,18,08,33,19.80
2015,07,18,08,34,19.80
2015,07,18,08,35,19.80
2015,07,18,08,36,19.80
2015,07,18,08,37,19.80
2015,07,18,08,38,19.90
2015,07,18,08,39,19.90
2015,07,18,08,40,19.90
2015,07,18,08,41,19.90
2015,07,18,08,42,20.00
2015,07,18,08,43,20.00
2015,07,18,08,44,20.00
2015,07,18,08,45,20.10
2015,07,18,08,46,20.10
2015,07,18,08,47,20.10
2015,07,18,08,48,20.10
2015,07,18,08,49,20.20
2015,07,18,08,50,20.20
2015,07,18,08,51,20.20
2015,07,18,08,52,20.30
2015,07,18,08,53,20.30
2015,07,18,08,54,20.40
2015,07,18,08,55,20.50
2015,07,18,08,56,20.50
2015,07,18,08,57,20.60
2015,07,18,08,58,20.60
2015,07,18,08,59,20.60
2015,07,18,09,00,20.60
2015,07,18,09,01,20.60
2015,07,18,09,02,20.60
2015,07,18,09,03,20.60
2015,07,18,09,04,20.60
2015,07,18,09,05,20.60
2015,07,18,09,06,20.60
2015,07,18,09,07,20.60
2015,07,18,09,08,20.60
2015,07,18,09,09,20.60
2015,07,18,09,10,20.60
2015,07,18,09,11,20.60
2015,07,18,09,12,20.60
2015,07,18,09,13,20.70
2015,07,18,09,14,20.70
2015,07,18,09,15,20.70
2015,07,18,09,16,20.70
2015,07,18,09,17,20.60
2015,07,18,09,18,20.60
2015,07,18,09,19,20.60
2015,07,18,09,20,20.60
2015,07,18,09,21,20.60
2015,07,18,09,22,20.60
2015,07,18,09,23,20.60
2015,07,18,09,24,20.60
2015,07,18,09,25,20.60
2015,07,18,09,26,20.60
2015,07,18,09,27,20.60
2015,07,18,09,28,20.60
2015,07,18,09,29,20.60
2015,07,18,09,30,20.60
2015,07,18,09,31,20.60
2015,07,18,09,32,20.60
2015,07,18,09,33,20.70
2015,07,18,09,34,20.70
2015,07,18,09,35,20.70
2015,07,18,09,36,20.70
2015,07,18,09,37,20.70
2015,07,18,09,38,20.70
2015,07,18,09,39,20.70
2015,07,18,09,40,20.70
2015,07,18,09,41,20.80
2015,07,18,09,42,20.80
2015,07,18,09,43,20.90
2015,07,18,09,44,21.00
2015,07,18,09,45,21.00
2015,07,18,09,46,21.10
2015,07,18,09,47,21.10
2015,07,18,09,48,21.10
2015,07,18,09,49,21.20
2015,07,18,09,50,21.20
2015,07,18,09,51,21.20
2015,07,18,09,52,21.30
2015,07,18,09,53,21.40
2015,07,18,09,54,21.40
2015,07,18,09,55,21.50
2015,07,18,09,56,21.50
2015,07,18,09,57,21.50
2015,07,18,09,58,21.50
2015,07,18,09,59,21.60
2015,07,18,10,00,21.60
2015,07,18,10,01,21.60
2015,07,18,10,02,21.60
2015,07,18,10,03,21.60
2015,07,18,10,04,21.60
2015,07,18,10,05,21.70
2015,07,18,10,06,21.70
2015,07,18,10,07,21.70
2015,07,18,10,08,21.80
2015,07,18,10,09,21.80
2015,07,18,10,10,21.90
2015,07,18,10,11,21.90
2015,07,18,10,12,21.90
2015,07,18,10,13,21.90
2015,07,18,10,14,21.90
2015,07,18,10,15,21.90
2015,07,18,10,16,21.90
2015,07,18,10,17,22.00
2015,07,18,10,18,22.00
2015,07,18,10,19,22.10
2015,07,18,10,20,22.10
2015,07,18,10,21,22.20
2015,07,18,10,22,22.20
2015,07,18,10,23,22.20
2015,07,18,10,24,22.20
2015,07,18,10,25,22.20
2015,07,18,10,26,22.30
2015,07,18,10,27,22.30
2015,07,18,10,28,22.30
2015,07,18,10,29,22.30
2015,07,18,10,30,22.40
2015,07,18,10,31,22.40
2015,07,18,10,32,22.50
2015,07,18,10,33,22.60
2015,07,18,10,34,22.60
2015,07,18,10,35,22.70
2015,07,18,10,36,22.70
2015,07,18,10,37,22.70
2015,07,18,10,38,22.70
2015,07,18,10,39,22.80
2015,07,18,10,40,22.80
2015,07,18,10,41,22.80
2015,07,18,10,42,22.80
2015,07,18,10,43,22.80
2015,07,18,10,44,22.70
2015,07,18,10,45,22.70
2015,07,18,10,46,22.60
2015,07,18,10,47,22.60
2015,07,18,10,48,22.60
2015,07,18,10,49,22.60
2015,07,18,10,50,22.60
2015,07,18,10,51,22.60
2015,07,18,10,52,22.60
2015,07,18,10,53,22.50
2015,07,18,10,54,22.50
2015,07,18,10,55,22.50
2015,07,18,10,56,22.50
2015,07,18,10,57,22.50
2015,07,18,10,58,22.60
2015,07,18,10,59,22.60
2015,07,18,11,00,22.60
2015,07,18,11,01,22.60
2015,07,18,11,02,22.70
2015,07,18,11,03,22.70
2015,07,18,11,04,22.70
2015,07,18,11,05,22.70
2015,07,18,11,06,22.70
2015,07,18,11,07,22.70
2015,07,18,11,08,22.70
2015,07,18,11,09,22.80
2015,07,18,11,10,22.80
2015,07,18,11,11,22.80
2015,07,18,11,12,22.80
2015,07,18,11,13,22.90
2015,07,18,11,14,22.90
2015,07,18,11,15,23.00
2015,07,18,11,16,23.10
2015,07,18,11,17,23.10
2015,07,18,11,18,23.10
2015,07,18,11,19,23.10
2015,07,18,11,20,23.10
2015,07,18,11,21,23.20
2015,07,18,11,22,23.20
2015,07,18,11,23,23.20
2015,07,18,11,24,23.30
2015,07,18,11,25,23.30
2015,07,18,11,26,23.40
2015,07,18,11,27,23.40
2015,07,18,11,28,23.40
2015,07,18,11,29,23.40
2015,07,18,11,30,23.40
2015,07,18,11,31,23.40
2015,07,18,11,32,23.50
2015,07,18,11,33,23.60
2015,07,18,11,34,23.60
2015,07,18,11,35,23.60
2015,07,18,11,36,23.60
2015,07,18,11,37,23.60
2015,07,18,11,38,23.70
2015,07,18,11,39,23.70
2015,07,18,11,40,23.80
2015,07,18,11,41,23.80
2015,07,18,11,42,23.90
2015,07,18,11,43,24.00
2015,07,18,11,44,24.10
2015,07,18,11,45,24.20
2015,07,18,11,46,24.20
2015,07,18,11,47,24.30
2015,07,18,11,48,24.40
2015,07,18,11,49,24.40
2015,07,18,11,50,24.40
2015,07,18,11,51,24.40
2015,07,18,11,52,24.40
2015,07,18,11,53,24.40
2015,07,18,11,54,24.40
2015,07,18,11,55,24.40
2015,07,18,11,56,24.40
2015,07,18,11,57,24.50
2015,07,18,11,58,24.60
2015,07,18,11,59,24.60
2015,07,18,12,00,24.60
2015,07,18,12,01,24.70
2015,07,18,12,02,24.70
2015,07,18,12,03,24.80
2015,07,18,12,04,24.90
2015,07,18,12,05,25.00
2015,07,18,12,06,25.00
2015,07,18,12,07,25.10
2015,07,18,12,08,25.30
2015,07,18,12,09,25.30
2015,07,18,12,10,25.40
2015,07,18,12,11,25.40
2015,07,18,12,12,25.40
2015,07,18,12,13,25.50
2015,07,18,12,14,25.60
2015,07,18,12,15,25.60
2015,07,18,12,16,25.70
2015,07,18,12,17,25.70
2015,07,18,12,18,25.70
2015,07,18,12,19,25.80
2015,07,18,12,20,25.80
2015,07,18,12,21,25.90
2015,07,18,12,22,25.90
2015,07,18,12,23,26.00
2015,07,18,12,24,26.00
2015,07,18,12,25,26.00
2015,07,18,12,26,26.00
2015,07,18,12,27,26.10
2015,07,18,12,28,26.10
2015,07,18,12,29,26.10
2015,07,18,12,30,26.00
2015,07,18,12,31,26.00
2015,07,18,12,32,25.90
2015,07,18,12,33,25.90
2015,07,18,12,34,25.90
2015,07,18,12,35,26.00
2015,07,18,12,36,26.00
2015,07,18,12,37,26.10
2015,07,18,12,38,26.20
2015,07,18,12,39,26.20
2015,07,18,12,40,26.30
2015,07,18,12,41,26.40
2015,07,18,12,42,26.40
2015,07,18,12,43,26.50
2015,07,18,12,44,26.50
2015,07,18,12,45,26.50
2015,07,18,12,46,26.50
2015,07,18,12,47,26.50
2015,07,18,12,48,26.50
2015,07,18,12,49,26.40
2015,07,18,12,50,26.40
2015,07,18,12,51,26.40
2015,07,18,12,52,26.40
2015,07,18,12,53,26.40
2015,07,18,12,54,26.50
2015,07,18,12,55,26.60
2015,07,18,12,56,26.60
2015,07,18,12,57,26.70
2015,07,18,12,58,26.80
2015,07,18,12,59,26.80
2015,07,18,13,00,26.80
2015,07,18,13,01,26.80
2015,07,18,13,02,26.80
2015,07,18,13,03,26.80
2015,07,18,13,04,26.80
2015,07,18,13,05,26.80
2015,07,18,13,06,26.80
2015,07,18,13,07,26.80
2015,07,18,13,08,26.90
2015,07,18,13,09,26.90
2015,07,18,13,10,26.90
2015,07,18,13,11,26.90
2015,07,18,13,12,26.90
2015,07,18,13,13,26.90
2015,07,18,13,14,26.80
2015,07,18,13,15,26.90
2015,07,18,13,16,26.90
2015,07,18,13,17,27.00
2015,07,18,13,18,27.10
2015,07,18,13,19,27.20
2015,07,18,13,20,27.30
2015,07,18,13,21,27.40
2015,07,18,13,22,27.50
2015,07,18,13,23,27.60
2015,07,18,13,24,27.70
2015,07,18,13,25,27.80
2015,07,18,13,26,27.90
2015,07,18,13,27,28.00
2015,07,18,13,28,28.10
2015,07,18,13,29,28.20
2015,07,18,13,30,28.20
2015,07,18,13,31,28.30
2015,07,18,13,32,28.30
2015,07,18,13,33,28.30
2015,07,18,13,34,28.30
2015,07,18,13,35,28.30
2015,07,18,13,36,28.10
2015,07,18,13,37,28.10
2015,07,18,13,38,28.10
2015,07,18,13,39,28.10
2015,07,18,13,40,28.10
2015,07,18,13,41,28.20
2015,07,18,13,42,28.20
2015,07,18,13,43,28.10
2015,07,18,13,44,28.10
2015,07,18,13,45,28.10
2015,07,18,13,46,28.10
2015,07,18,13,47,28.20
2015,07,18,13,48,28.30
2015,07,18,13,49,28.30
2015,07,18,13,50,28.30
2015,07,18,13,51,28.40
2015,07,18,13,52,28.40
2015,07,18,13,53,28.40
2015,07,18,13,54,28.40
2015,07,18,13,55,28.50
2015,07,18,13,56,28.50
2015,07,18,13,57,28.60
2015,07,18,13,58,28.70
2015,07,18,13,59,28.70
2015,07,18,14,00,28.70
2015,07,18,14,01,28.70
2015,07,18,14,02,28.70
2015,07,18,14,03,28.70
2015,07,18,14,04,28.70
2015,07,18,14,05,28.80
2015,07,18,14,06,28.90
2015,07,18,14,07,29.00
2015,07,18,14,08,29.00
2015,07,18,14,09,29.00
2015,07,18,14,10,29.00
2015,07,18,14,11,29.10
2015,07,18,14,12,29.10
2015,07,18,14,13,29.10
2015,07,18,14,14,29.20
2015,07,18,14,15,29.20
2015,07,18,14,16,29.20
2015,07,18,14,17,29.20
2015,07,18,14,18,29.20
2015,07,18,14,19,29.20
2015,07,18,14,20,29.20
2015,07,18,14,21,29.30
2015,07,18,14,22,29.30
2015,07,18,14,23,29.30
2015,07,18,14,24,29.30
2015,07,18,14,25,29.30
2015,07,18,14,26,29.40
2015,07,18,14,27,29.50
2015,07,18,14,28,29.50
2015,07,18,14,29,29.50
2015,07,18,14,30,29.50
2015,07,18,14,31,29.50
2015,07,18,14,32,29.50
2015,07,18,14,33,29.40
2015,07,18,14,34,29.30
2015,07,18,14,35,29.20
2015,07,18,14,36,29.20
2015,07,18,14,37,29.10
2015,07,18,14,38,29.10
2015,07,18,14,39,29.20
2015,07,18,14,40,29.20
2015,07,18,14,41,29.20
2015,07,18,14,42,29.20
2015,07,18,14,43,29.20
2015,07,18,14,44,29.20
2015,07,18,14,45,29.20
2015,07,18,14,46,29.30
2015,07,18,14,47,29.40
2015,07,18,14,48,29.50
2015,07,18,14,49,29.60
2015,07,18,14,50,29.70
2015,07,18,14,51,29.70
2015,07,18,14,52,29.80
2015,07,18,14,53,29.80
2015,07,18,14,54,29.90
2015,07,18,14,55,30.00
2015,07,18,14,56,30.10
2015,07,18,14,57,30.10
2015,07,18,14,58,30.10
2015,07,18,14,59,30.10
2015,07,18,15,00,30.00
2015,07,18,15,01,30.00
2015,07,18,15,02,30.00
2015,07,18,15,03,30.00
2015,07,18,15,04,30.00
2015,07,18,15,05,29.90
2015,07,18,15,06,29.90
2015,07,18,15,07,29.90
2015,07,18,15,08,29.90
2015,07,18,15,09,29.90
2015,07,18,15,10,30.00
2015,07,18,15,11,30.10
2015,07,18,15,12,30.20
2015,07,18,15,13,30.30
2015,07,18,15,14,30.30
2015,07,18,15,15,30.30
2015,07,18,15,16,30.30
2015,07,18,15,17,30.20
2015,07,18,15,18,30.20
2015,07,18,15,19,30.20
2015,07,18,15,20,30.10
2015,07,18,15,21,30.10
2015,07,18,15,22,30.10
2015,07,18,15,23,30.10
2015,07,18,15,24,30.10
2015,07,18,15,25,30.10
2015,07,18,15,26,30.10
2015,07,18,15,27,30.10
2015,07,18,15,28,30.10
2015,07,18,15,29,30.20
2015,07,18,15,30,30.20
2015,07,18,15,31,30.20
2015,07,18,15,32,30.20
2015,07,18,15,33,30.20
2015,07,18,15,34,30.20
2015,07,18,15,35,30.20
2015,07,18,15,36,30.20
2015,07,18,15,37,30.20
2015,07,18,15,38,30.30
2015,07,18,15,39,30.30
2015,07,18,15,40,30.30
2015,07,18,15,41,30.30
2015,07,18,15,42,30.30
2015,07,18,15,43,30.20
2015,07,18,15,44,30.10
2015,07,18,15,45,30.10
2015,07,18,15,46,30.00
2015,07,18,15,47,30.00
2015,07,18,15,48,30.10
2015,07,18,15,49,30.10
2015,07,18,15,50,30.20
2015,07,18,15,51,30.30
2015,07,18,15,52,30.40
2015,07,18,15,53,30.50
2015,07,18,15,54,30.60
2015,07,18,15,55,30.60
2015,07,18,15,56,30.70
2015,07,18,15,57,30.70
2015,07,18,15,58,30.70
2015,07,18,15,59,30.80
2015,07,18,16,00,30.80
2015,07,18,16,01,30.80
2015,07,18,16,02,30.80
2015,07,18,16,03,30.90
2015,07,18,16,04,30.90
2015,07,18,16,05,30.90
2015,07,18,16,06,30.90
2015,07,18,16,07,30.90
2015,07,18,16,08,30.90
2015,07,18,16,09,30.90
2015,07,18,16,10,30.90
2015,07,18,16,11,30.80
2015,07,18,16,12,30.80
2015,07,18,16,13,30.80
2015,07,18,16,14,30.70
2015,07,18,16,15,30.80
2015,07,18,16,16,30.80
2015,07,18,16,17,30.80
2015,07,18,16,18,30.80
2015,07,18,16,19,30.80
2015,07,18,16,20,30.90
2015,07,18,16,21,31.00
2015,07,18,16,22,31.00
2015,07,18,16,23,31.10
2015,07,18,16,24,31.10
2015,07,18,16,25,31.10
2015,07,18,16,26,31.00
2015,07,18,16,27,31.00
2015,07,18,16,28,31.00
2015,07,18,16,29,31.00
2015,07,18,16,30,31.00
2015,07,18,16,31,31.10
2015,07,18,16,32,31.10
2015,07,18,16,33,31.10
2015,07,18,16,34,31.00
2015,07,18,16,35,31.00
2015,07,18,16,36,30.90
2015,07,18,16,37,30.90
2015,07,18,16,38,30.90
2015,07,18,16,39,30.90
2015,07,18,16,40,31.00
2015,07,18,16,41,31.10
2015,07,18,16,42,31.10
2015,07,18,16,43,31.10
2015,07,18,16,44,31.20
2015,07,18,16,45,31.20
2015,07,18,16,46,31.20
2015,07,18,16,47,31.20
2015,07,18,16,48,31.10
2015,07,18,16,49,31.20
2015,07,18,16,50,31.20
2015,07,18,16,51,31.20
2015,07,18,16,52,31.20
2015,07,18,16,53,31.20
2015,07,18,16,54,31.10
2015,07,18,16,55,31.10
2015,07,18,16,56,31.00
2015,07,18,16,57,30.90
2015,07,18,16,58,30.80
2015,07,18,16,59,30.90
2015,07,18,17,00,30.90
2015,07,18,17,01,31.00
2015,07,18,17,02,31.10
2015,07,18,17,03,31.10
2015,07,18,17,04,31.10
2015,07,18,17,05,31.20
2015,07,18,17,06,31.20
2015,07,18,17,07,31.20
2015,07,18,17,08,31.20
2015,07,18,17,09,31.20
2015,07,18,17,10,31.20
2015,07,18,17,11,31.20
2015,07,18,17,12,31.20
2015,07,18,17,13,31.20
2015,07,18,17,14,31.10
2015,07,18,17,15,31.10
2015,07,18,17,16,31.10
2015,07,18,17,17,31.00
2015,07,18,17,18,31.00
2015,07,18,17,19,31.00